Location: Churchill
(41.1620°N, 80.6648°W)
Time: 20:13:15
(UTC+00:00)

Daily predictions for brighter satellites

Satellite Brightness Start Highest point End
(mag) Time Altitude Azimuth Time Altitude Azimuth Time Altitude Azimuth
ATLAS 5 CENTAUR R/B 3.0 22:15:08 10° NW 22:20:59 67° WSW 22:27:43 10° SSE
MOS 1-B 4.4 22:17:04 10° SSE 22:22:50 80° ENE 22:28:40 10° NNW
Cosmos 2333 Rocket 3.0 22:19:20 10° SW 22:24:54 55° WNW 22:30:30 10° NNE
USA 281 4.3 22:22:48 10° E 22:27:33 22° NE 22:32:18 10° N
Cosmos 372 Rocket 4.0 22:22:35 10° NNW 22:27:45 81° ENE 22:32:56 10° SSE
NOSS 0 Rocket 4.0 22:21:42 10° S 22:27:51 64° ESE 22:34:01 10° NNE
NOAA 6 4.1 22:23:15 10° SSE 22:28:25 87° ENE 22:33:36 10° NNW
COSMOS 2428 3.2 22:24:30 10° SW 22:30:11 65° WNW 22:35:54 10° NNE
Cosmos 2298 Rocket 4.1 22:27:51 10° N 22:33:05 55° ENE 22:38:17 10° SE
Cosmos 1818 4.0 22:28:54 10° NNW 22:34:04 41° NE 22:39:11 10° ESE
ISS -3.8 22:31:11 10° SW 22:34:32 89° SSE 22:37:55 10° NE
Cosmos 2150 Rocket 4.1 22:29:46 10° N 22:34:49 52° ENE 22:39:49 10° SE
ERS-2 3.1 22:36:26 10° NE 22:39:39 28° E 22:42:51 10° SSE
Cosmos 1939 Rocket 4.1 22:37:02 10° ESE 22:39:52 20° ENE 22:42:43 10° NNE
Cosmos 2327 Rocket 4.5 22:34:44 10° N 22:40:51 66° E 22:47:01 10° SSE
Cosmos 2221 3.1 22:36:54 10° SSW 22:41:12 63° W 22:45:31 10° N
Cosmos 2278 Rocket 2.2 22:35:51 10° NNW 22:41:29 59° ENE 22:47:04 10° SE
Cosmos 2074 Rocket 4.2 22:35:15 10° N 22:41:30 81° W 22:47:44 10° S
CZ-4B R/B 2.0 22:40:37 10° NNE 22:43:24 31° E 22:46:12 10° SSE
CSL-04 DEB 4.4 22:42:16 10° NNE 22:46:22 81° ESE 22:50:33 10° SSW
Cosmos 1500 Rocket 3.6 22:42:17 10° N 22:46:42 90° WSW 22:51:07 10° S
NOSS 2-1 (C) 4.4 22:42:36 10° NNW 22:47:56 76° NE 22:55:31 10° SE
TELKOM 3 3.1 22:46:07 10° SW 22:48:59 78° SSE 22:50:44 17° ENE
Cosmos 1125 Rocket 3.6 22:46:50 10° N 22:51:55 51° ENE 22:56:59 10° SE
Radarsat Rocket 4.3 22:46:14 10° S 22:52:06 75° WSW 22:58:31 10° NNW
Cosmos 2184 Rocket 4.5 22:46:42 10° NNW 22:53:03 69° W 22:59:20 10° S
NOSS 2-1 (D) 4.5 22:48:02 10° NNW 22:53:25 82° ENE 23:01:03 10° SE
YAOGAN 1 4.1 22:55:21 15° ENE 22:55:30 15° ENE 22:57:56 10° NNE
ADEOS Rocket 4.3 22:48:17 10° N 22:55:41 55° WNW 23:03:12 10° SW
Cosmos 2219 Rocket 3.8 22:54:11 10° WSW 22:59:14 33° WNW 23:04:20 10° N
USA 215 3.3 22:54:25 10° NE 23:01:00 86° NW 23:07:33 10° SW
CZ-4B R/B 3.4 22:56:07 10° S 23:01:30 76° WSW 23:06:49 10° NNW
NOAA 12 4.3 22:56:46 10° S 23:02:06 81° WSW 23:07:28 10° NNW
Okean-O 3.8 22:59:00 10° ESE 23:02:19 21° ENE 23:05:38 10° NNE
AQUARIUS 4.3 22:59:16 10° S 23:03:45 80° WSW 23:08:16 10° NNW
Meteor 2-12 Rocket 4.5 22:57:58 10° N 23:04:02 58° ENE 23:10:03 10° SSE
Cosmos 1295 Rocket 4.4 22:59:10 10° N 23:05:20 81° E 23:11:33 10° S
FengYun 1-2 T 4.2 23:00:38 10° SSE 23:06:11 78° ENE 23:11:43 10° N
SL-24 R/B - RUBIN 2 4.2 23:00:17 10° NNW 23:06:32 68° NE 23:12:03 10° SE
H-2A R/B 4.3 23:02:51 10° SSW 23:06:54 36° W 23:10:52 10° NNW
Cosmos 2237 Rocket 2.3 23:01:40 10° SSW 23:07:17 83° WNW 23:12:57 10° NNE
COSMO-SKYMED 1 2.9 23:03:43 10° NNE 23:07:53 43° E 23:12:01 10° S
NOAA 11 4.1 23:03:46 10° SSE 23:09:10 78° ENE 23:14:37 10° N
Okean O Rocket 2.3 23:10:32 10° S 23:14:48 58° W 23:19:07 10° NNW
Cosmos 1933 3.6 23:12:08 10° SSE 23:15:56 43° E 23:19:06 14° NNE
SL-24 R/B 4.2 23:13:00 12° NNE 23:16:27 40° E 23:20:00 10° SSE
Cosmos 405 Rocket 4.2 23:13:09 10° NNW 23:16:51 41° W 23:20:34 10° SSW
USA 81 4.3 23:14:45 10° N 23:19:50 45° E 23:24:52 10° SSE
Sich 1 2.9 23:15:33 10° N 23:19:58 78° E 23:24:18 10° S
PSLV R/B 4.2 23:20:05 21° NE 23:22:24 42° E 23:26:13 10° S
Cosmos 2369 Rocket 3.9 23:19:58 10° NNE 23:22:06 14° NE 23:22:06 14° NE
Cosmos 1980 4.3 23:19:46 10° SW 23:25:19 56° WNW 23:30:57 10° NNE
H-2A R/B 2.9 23:25:30 26° E 23:26:11 27° ENE 23:30:31 10° N
Cosmos 1805 Rocket 4.1 23:24:34 10° NNW 23:28:59 61° W 23:33:20 10° S
Helios 1A Rocket 3.3 23:25:51 10° SE 23:29:33 36° ENE 23:33:16 10° N
SKYMED 3 4.4 23:27:37 10° NNE 23:31:59 82° ESE 23:36:19 10° S
USA 267 3.4 23:27:58 21° ESE 23:32:18 54° NNE 23:38:36 10° NW
Cosmos 2218 Rocket 4.0 23:26:35 10° N 23:32:37 54° E 23:38:36 10° SSE
Cosmos 389 Rocket 3.0 23:30:07 10° SSW 23:33:31 57° WNW 23:36:46 11° N
Cosmos 1151 Rocket 3.0 23:30:43 10° S 23:34:56 58° E 23:37:28 23° NNE
Cosmos 1666 Rocket 3.4 23:30:43 10° N 23:35:07 71° E 23:39:31 10° SSE
Cosmos 773 Rocket 4.4 23:30:44 10° S 23:35:37 42° ESE 23:37:15 33° ENE
Cosmos 1782 4.1 23:33:12 10° SSE 23:35:11 24° SE 23:35:11 24° SE
Cosmos 1606 3.6 23:34:18 10° SSW 23:38:05 51° W 23:41:55 10° N
Cosmos 1328 Rocket 3.5 23:34:19 10° S 23:38:31 56° E 23:40:17 32° NNE
Cosmos 783 Rocket 4.4 23:35:03 10° S 23:40:18 67° ESE 23:43:31 24° NNE
Cosmos 2366 rocket 3.9 23:38:37 10° N 23:44:47 66° E 23:50:53 10° SSE
SL-24 DEB 4.2 23:41:04 10° NNE 23:45:47 62° E 23:50:27 10° S
BREEZE-M DEB (TANK) 3.8 23:36:58 10° SW 23:47:21 49° SSE 23:48:27 40° ESE
Cosmos 2297 3.7 23:42:11 10° NNW 23:47:46 55° ENE 23:50:36 28° SE
BREEZE-M DEB (TANK) 3.7 23:45:57 10° W 23:47:24 23° NW 23:47:24 23° NW
Abrixas rocket 3.6 23:53:53 10° WNW 23:55:50 32° WSW 23:55:50 32° WSW
